[[{"header":{"parameterUnit":"m.s-1","parameterCategory":1,"la1":30.2991,"la2":30.254,"lo1":-89.0895,"lo2":-89.0444,"dy":0.0017,"dx":0.0017,"nx":28,"ny":28,"refTime":"2023-09-29T09:00:00:Z","depth":0,"parameterNumber":2,"parameterNumberName":"U-component_of_WINDS"},"data":[0,0,0,0,0,0,0,0,0,0,0,0,0,0,0,0,0,0,0,0,0,0,0,0,0,0,0,0,0,0,0,0,0,0,0,0,0,0,0,0,0,0,0,0,0,0,0,0,0,0,0,0,0,0,0,0,0,0,-4.047,-4.0469,0,-4.0449,-4.0449,-4.0449,-4.0348,-4.0345,-4.0343,-4.0341,-4.0323,-4.0325,-4.0327,0,0,0,0,0,0,0,0,0,0,0,0,0,-4.0425,-4.0427,-4.047,-4.0469,-4.0469,-4.0449,-4.0449,-4.0449,-4.0348,-4.0345,-4.0342,-4.034,-4.0323,-4.0325,-4.0327,0,0,0,0,0,0,0,0,0,0,0,0,0,-4.0429,-4.0427,-4.047,-4.0416,-4.0411,-4.045,-4.0449,-4.0449,-4.0349,-4.0345,-4.0342,-4.0338,-4.0322,-4.0325,-4.0327,-4.0416,0,0,-4.0336,-4.0337,0,0,0,0,0,0,0,0,-4.0429,-4.0431,-4.0425,-4.042,-4.0415,-4.0397,-4.0427,-4.0438,-4.035,-4.0373,-4.0341,-4.0337,-4.0351,-4.0351,-4.0355,-4.0415,-4.0415,-4.0336,-4.0337,-4.0339,-4.0339,0,0,0,0,0,0,0,-4.0429,-4.0431,-4.0462,-4.0425,-4.0419,-4.0395,-4.0392,-4.0429,-4.0383,-4.037,-4.0363,-4.0362,-4.0348,-4.0353,-4.0354,-4.0414,-4.0336,-4.0338,-4.034,-4.0341,-4.0549,-4.0553,0,0,0,0,0,0,-4.0435,-4.0431,-4.0462,-4.0461,-4.0413,-4.0399,-4.0395,-4.0407,-4.0382,-4.0375,-4.0365,-4.0357,-4.035,-4.0351,-4.0353,-4.0458,-4.0339,-4.0341,-4.0343,-4.0545,-4.055,-4.0554,0,0,0,0,0,0,-4.0435,-4.0439,-4.0463,-4.0444,-4.0445,-4.0403,-4.0417,-4.0408,-4.0413,-4.0378,-4.0369,-4.0379,-4.0348,-4.035,-4.0402,-4.0456,-4.0342,-4.0345,-4.0541,-4.0547,-4.0552,-4.0666,0,0,0,0,0,0,-4.0434,-4.0439,-4.0472,-4.0446,-4.0447,-4.0511,-4.0421,-4.041,-4.0418,-4.0408,-4.0388,-4.0382,-4.0345,-4.0398,-4.0404,-4.0457,-4.0347,-4.0536,-4.0543,-4.055,-4.0658,-4.0676,-4.0691,0,0,0,0,0,-4.0433,-4.0505,-4.0474,-4.0478,-4.0486,-4.0514,-4.0515,-4.047,-4.0422,-4.0455,-4.0433,-4.0382,-4.0449,-4.0405,-4.041,-4.0465,-4.0532,-4.0541,-4.055,-4.065,-4.0672,-4.069,0,0,0,0,0,0,-4.0538,-4.05,-4.0465,-4.0531,-4.0527,-4.0497,-4.0537,-4.0494,-4.0504,-4.0494,-4.0439,-4.0436,-4.0497,-4.0486,-4.0437,-4.0551,-4.0482,-4.0493,-4.0556,-4.0577,-4.0593,-4.0595,-4.0349,0,0,0,0,0,-4.0569,-4.0594,-4.0559,-4.0621,-4.062,-4.0579,-4.059,-4.0556,-4.0549,-4.0547,-4.0528,-4.0526,-4.0546,-4.056,-4.0577,-4.0655,-4.0651,-4.0696,-4.0713,-4.0726,-4.0737,-4.0781,-4.0801,-4.0583,-4.0583,-4.0583,0,0,-4.0633,-4.0615,-4.0634,-4.0641,-4.0634,-4.0663,-4.0578,-4.0612,-4.0633,-4.0553,-4.0601,-4.0588,-4.0581,-4.0647,-4.0676,-4.064,-4.0796,-4.0738,-4.0749,-4.0752,-4.0792,-4.0813,-4.0831,-4.0589,-4.0588,-4.0587,0,0,-4.0765,-4.0753,-4.0804,-4.0798,-4.0788,-4.0761,-4.0773,-4.0751,-4.0739,-4.0786,-4.0727,-4.0753,-4.0788,-4.0786,-4.079,-4.0924,-4.0879,-4.0931,-4.1018,-4.1062,-4.1079,-4.1094,-4.1144,-4.1163,-4.0941,-4.0942,-4.0942,0,-4.0846,-4.0886,-4.0835,-4.0873,-4.088,-4.0808,-4.086,-4.0858,-4.0854,-4.0861,-4.082,-4.0865,-4.0855,-4.0922,-4.0955,-4.096,-4.0974,-4.0934,-4.108,-4.1095,-4.1108,-4.1156,-4.1175,-4.0948,-4.0947,-4.0947,-4.0946,0,-4.0988,-4.1017,-4.1059,-4.1057,-4.1068,-4.1113,-4.1071,-4.1088,-4.1054,-4.1032,-4.1083,-4.1069,-4.1083,-4.1095,-4.1062,-4.1159,-4.1137,-4.109,-4.1019,-4.1136,-4.118,-4.1198,-4.0957,-4.0955,-4.0953,-4.0952,0,0,-4.1185,-4.1156,-4.1173,-4.1173,-4.1157,-4.1179,-4.1222,-4.1235,-4.1252,-4.1252,-4.1289,-4.1321,-4.1278,-4.1283,-4.1249,-4.1287,-4.1397,-4.1234,-4.1233,-4.1267,-4.1506,-4.1544,-4.1566,-4.1367,-4.137,-4.1372,-4.1508,0,-4.1313,-4.1384,-4.1341,-4.1419,-4.1447,-4.138,-4.1418,-4.1414,-4.1394,-4.1416,-4.1395,-4.142,-4.1359,-4.1362,-4.1397,-4.1377,-4.1445,-4.1366,-4.1403,-4.1405,-4.1409,-4.1588,-4.1627,-4.1756,-4.1524,-4.1527,-4.1529,0,-4.1472,-4.148,-4.1561,-4.1542,-4.1552,-4.1587,-4.1597,-4.1617,-4.1613,-4.1596,-4.1603,-4.156,-4.1603,-4.1533,-4.1593,-4.1541,-4.1553,-4.1546,-4.155,-4.1553,-4.1475,-4.1599,-4.1795,-4.1816,-4.1555,-4.1553,-4.1551,0,-4.1611,-4.1642,-4.1695,-4.1696,-4.1675,-4.1702,-4.1695,-4.1686,-4.1697,-4.1706,-4.1713,-4.1728,-4.1736,-4.1749,-4.1713,-4.1664,-4.1779,-4.1705,-4.1769,-4.1771,-4.1798,-4.1797,-4.2001,-4.1802,-4.1802,-4.1802,-4.1801,0,-4.176,-4.1813,-4.1757,-4.179,-4.1848,-4.1799,-4.1859,-4.1844,-4.1838,-4.1868,-4.1811,-4.1841,-4.179,-4.1816,-4.1788,-4.1844,-4.1848,-4.1837,-4.183,-4.1844,-4.1846,-4.1853,-4.1844,-4.1807,-4.1806,-4.1805,-4.1804,0,-4.1926,-4.189,-4.1944,-4.192,-4.1916,-4.196,-4.1941,-4.1971,-4.1948,-4.1988,-4.1995,-4.196,-4.1988,-4.1952,-4.1976,-4.1957,-4.2035,-4.2013,-4.2037,-4.2031,-4.2099,-4.2094,-4.2316,-4.2345,-4.2126,-4.2128,-4.213,0,-4.2024,-4.2063,-4.2044,-4.206,-4.2056,-4.2083,-4.2094,-4.2048,-4.2063,-4.2062,-4.2093,-4.2116,-4.2132,-4.218,-4.2158,-4.2177,-4.2156,-4.2233,-4.2159,-4.2173,-4.2161,-4.216,-4.2165,-4.2249,-4.2252,-4.2254,-4.2255,0,-4.2203,-4.2184,-4.2202,-4.2216,-4.2231,-4.2239,-4.2243,-4.226,-4.2212,-4.2232,-4.226,-4.2272,-4.2298,-4.2322,-4.2336,-4.233,-4.2287,-4.2279,-4.2295,-4.2311,-4.2325,-4.2321,-4.2081,-4.2274,-4.2272,-4.2271,-4.227,-4.2269,-4.2339,-4.2372,-4.2365,-4.2388,-4.2386,-4.2392,-4.2421,-4.2402,-4.2423,-4.244,-4.2412,-4.2448,-4.2444,-4.2458,-4.2457,-4.2486,-4.2453,-4.2476,-4.2483,-4.249,-4.2501,-4.2319,-4.2488,-4.2487,-4.2487,-4.2486,-4.2486,0,-4.2517,-4.2509,-4.2531,-4.2539,-4.2559,-4.2514,-4.2517,-4.2537,-4.2569,-4.2569,-4.2586,-4.2619,-4.2643,-4.2624,-4.2644,-4.2671,-4.2652,-4.2679,-4.2677,-4.2677,-4.2528,-4.2513,-4.2694,-4.2694,-4.2694,-4.2694,-4.2694,-4.2694,-4.2612,-4.2667,-4.2648,-4.2702,-4.2693,-4.2727,-4.2733,-4.274,-4.274,-4.2779,-4.2799,-4.2785,-4.2779,-4.2798,-4.282,-4.2813,-4.2825,-4.2859,-4.2847,-4.2708,-4.2687,-4.2668,-4.2654,-4.2862,-4.2862,-4.2994,-4.2995,-4.2996]},{"header":{"parameterUnit":"m.s-1","parameterCategory":1,"la1":30.2991,"la2":30.254,"lo1":-89.0895,"lo2":-89.0444,"dy":0.0017,"dx":0.0017,"nx":28,"ny":28,"refTime":"2023-09-29T09:00:00:Z","depth":0,"parameterNumber":3,"parameterNumberName":"V-component_of_WINDS"},"data":[0,0,0,0,0,0,0,0,0,0,0,0,0,0,0,0,0,0,0,0,0,0,0,0,0,0,0,0,0,0,0,0,0,0,0,0,0,0,0,0,0,0,0,0,0,0,0,0,0,0,0,0,0,0,0,0,0,0,-1.0611,-1.0612,0,-1.0627,-1.0627,-1.0627,-1.0614,-1.0613,-1.0613,-1.0612,-1.0629,-1.063,-1.0631,0,0,0,0,0,0,0,0,0,0,0,0,0,-1.0572,-1.0573,-1.0611,-1.0612,-1.0612,-1.0626,-1.0627,-1.0627,-1.0614,-1.0613,-1.0612,-1.0612,-1.0629,-1.063,-1.0631,0,0,0,0,0,0,0,0,0,0,0,0,0,-1.0589,-1.0574,-1.0611,-1.0607,-1.0607,-1.0626,-1.0627,-1.0627,-1.0614,-1.0613,-1.0612,-1.0611,-1.0628,-1.063,-1.0631,-1.0656,0,0,-1.0635,-1.0636,0,0,0,0,0,0,0,0,-1.0588,-1.059,-1.0607,-1.0607,-1.0607,-1.0617,-1.0619,-1.0637,-1.0614,-1.0611,-1.0612,-1.0611,-1.0626,-1.0627,-1.0632,-1.0657,-1.0658,-1.0635,-1.0636,-1.0637,-1.0637,0,0,0,0,0,0,0,-1.0587,-1.0589,-1.0617,-1.0608,-1.0607,-1.0605,-1.0606,-1.0622,-1.0623,-1.0611,-1.061,-1.0612,-1.0626,-1.0631,-1.0632,-1.0658,-1.0635,-1.0637,-1.0638,-1.0638,-1.0706,-1.0707,0,0,0,0,0,0,-1.0586,-1.0589,-1.0617,-1.0618,-1.0595,-1.0606,-1.0608,-1.0615,-1.0623,-1.0623,-1.0613,-1.0612,-1.0629,-1.0631,-1.0633,-1.0665,-1.0637,-1.0638,-1.0639,-1.0705,-1.0706,-1.0707,0,0,0,0,0,0,-1.0585,-1.0588,-1.0616,-1.0603,-1.0606,-1.0608,-1.0616,-1.0616,-1.0621,-1.0624,-1.0624,-1.0618,-1.0628,-1.0631,-1.0651,-1.0665,-1.0639,-1.064,-1.0704,-1.0706,-1.0707,-1.0727,0,0,0,0,0,0,-1.0584,-1.0588,-1.0598,-1.0603,-1.0607,-1.0634,-1.0617,-1.0617,-1.0623,-1.0622,-1.0629,-1.0629,-1.0628,-1.0649,-1.0652,-1.0666,-1.0641,-1.0703,-1.0705,-1.0706,-1.0726,-1.0729,-1.0733,0,0,0,0,0,-1.0583,-1.0603,-1.0598,-1.0602,-1.0619,-1.0635,-1.0637,-1.0634,-1.0624,-1.0634,-1.0636,-1.0629,-1.0662,-1.0651,-1.0655,-1.067,-1.0702,-1.0704,-1.0706,-1.0724,-1.0729,-1.0733,0,0,0,0,0,0,-1.0599,-1.0603,-1.0598,-1.0621,-1.0627,-1.0632,-1.0645,-1.0639,-1.0649,-1.0647,-1.0643,-1.0645,-1.0667,-1.067,-1.0657,-1.0695,-1.0681,-1.0684,-1.0693,-1.0697,-1.0701,-1.0701,-1.0643,0,0,0,0,0,-1.0605,-1.0617,-1.062,-1.064,-1.0643,-1.0643,-1.065,-1.0647,-1.0654,-1.0657,-1.0661,-1.0668,-1.068,-1.0689,-1.07,-1.0725,-1.0728,-1.0737,-1.0741,-1.0744,-1.0747,-1.0762,-1.0767,-1.0714,-1.0714,-1.0714,0,0,-1.0618,-1.0622,-1.063,-1.0643,-1.0648,-1.0662,-1.0646,-1.066,-1.0671,-1.0659,-1.0679,-1.0682,-1.069,-1.0713,-1.0723,-1.0716,-1.0762,-1.0746,-1.0749,-1.0751,-1.0765,-1.077,-1.0775,-1.0716,-1.0715,-1.0715,0,0,-1.0649,-1.0653,-1.067,-1.0675,-1.0683,-1.0682,-1.0687,-1.0692,-1.0694,-1.0713,-1.0705,-1.0717,-1.0738,-1.0745,-1.0751,-1.0784,-1.0779,-1.0788,-1.0807,-1.0822,-1.0827,-1.083,-1.0844,-1.0849,-1.0791,-1.0791,-1.0791,0,-1.0665,-1.0685,-1.068,-1.0696,-1.0702,-1.0692,-1.071,-1.0715,-1.0726,-1.0732,-1.0723,-1.0749,-1.0754,-1.0779,-1.0788,-1.0792,-1.0798,-1.0788,-1.0826,-1.083,-1.0833,-1.0847,-1.0852,-1.0792,-1.0792,-1.0792,-1.0791,0,-1.0705,-1.0718,-1.0731,-1.0742,-1.075,-1.0767,-1.0766,-1.0774,-1.077,-1.0771,-1.0792,-1.0796,-1.0809,-1.0815,-1.0811,-1.084,-1.0836,-1.0826,-1.0812,-1.084,-1.0853,-1.0857,-1.0794,-1.0793,-1.0793,-1.0793,0,0,-1.0748,-1.0756,-1.0761,-1.0767,-1.0774,-1.0785,-1.0801,-1.0813,-1.0822,-1.0829,-1.0844,-1.0861,-1.0853,-1.086,-1.0857,-1.087,-1.0899,-1.086,-1.086,-1.0869,-1.0933,-1.0942,-1.0948,-1.0894,-1.0895,-1.0896,-1.0933,0,-1.0782,-1.081,-1.0807,-1.0835,-1.0848,-1.0838,-1.0853,-1.0859,-1.086,-1.0872,-1.0873,-1.0887,-1.0874,-1.0878,-1.089,-1.0893,-1.0912,-1.089,-1.091,-1.0911,-1.0911,-1.0954,-1.0963,-1.0999,-1.0938,-1.0939,-1.0939,0,-1.0825,-1.0834,-1.0864,-1.087,-1.0875,-1.0889,-1.09,-1.0911,-1.0918,-1.0918,-1.0926,-1.092,-1.0938,-1.0921,-1.0946,-1.0931,-1.0939,-1.0941,-1.0942,-1.0946,-1.0929,-1.0962,-1.101,-1.1016,-1.0947,-1.0946,-1.0946,0,-1.0857,-1.0876,-1.0897,-1.0902,-1.0909,-1.0918,-1.0922,-1.0928,-1.0936,-1.0946,-1.0951,-1.0963,-1.097,-1.0979,-1.0977,-1.0965,-1.1004,-1.0986,-1.1006,-1.1006,-1.1016,-1.1016,-1.1069,-1.1017,-1.1017,-1.1017,-1.1016,0,-1.0896,-1.0915,-1.0912,-1.0925,-1.0946,-1.0941,-1.0963,-1.0965,-1.097,-1.0984,-1.0975,-1.0989,-1.0984,-1.0998,-1.0996,-1.1018,-1.1021,-1.1022,-1.1022,-1.1025,-1.1025,-1.1032,-1.103,-1.1018,-1.1018,-1.1017,-1.1017,0,-1.0937,-1.0935,-1.0957,-1.0962,-1.0963,-1.0979,-1.0983,-1.0996,-1.0996,-1.1013,-1.1017,-1.1018,-1.1033,-1.1031,-1.1048,-1.1047,-1.1075,-1.1071,-1.1073,-1.1073,-1.1093,-1.1093,-1.1154,-1.1163,-1.1103,-1.1103,-1.1104,0,-1.0963,-1.0978,-1.0984,-1.0993,-1.0997,-1.101,-1.1019,-1.1014,-1.1023,-1.1032,-1.1044,-1.1058,-1.107,-1.1094,-1.1097,-1.111,-1.1107,-1.1128,-1.1109,-1.1112,-1.1111,-1.1111,-1.1114,-1.1133,-1.1133,-1.1134,-1.1134,0,-1.1011,-1.101,-1.1022,-1.1034,-1.1044,-1.1053,-1.1061,-1.1068,-1.1065,-1.1075,-1.109,-1.1099,-1.1116,-1.1131,-1.1144,-1.1148,-1.1142,-1.1139,-1.1145,-1.1149,-1.1151,-1.1153,-1.1086,-1.1139,-1.1138,-1.1138,-1.1138,-1.1138,-1.1048,-1.1061,-1.1068,-1.1082,-1.1087,-1.1095,-1.1108,-1.1109,-1.1122,-1.1136,-1.1131,-1.1149,-1.1157,-1.1173,-1.1178,-1.1192,-1.1185,-1.1192,-1.1195,-1.1197,-1.1201,-1.1146,-1.1194,-1.1194,-1.1194,-1.1194,-1.1193,0,-1.1098,-1.1102,-1.1114,-1.1126,-1.1137,-1.1128,-1.1137,-1.1147,-1.1163,-1.117,-1.1182,-1.12,-1.1214,-1.1217,-1.1231,-1.1242,-1.1239,-1.1246,-1.1247,-1.1248,-1.1206,-1.1201,-1.1248,-1.1248,-1.1248,-1.1248,-1.1248,-1.1248,-1.1126,-1.1148,-1.1147,-1.1173,-1.1176,-1.1194,-1.12,-1.1207,-1.1213,-1.1234,-1.1246,-1.1247,-1.1253,-1.1267,-1.128,-1.1281,-1.1288,-1.1296,-1.1296,-1.1256,-1.1251,-1.1246,-1.1241,-1.1297,-1.1297,-1.1338,-1.1338,-1.1338]}]]